User: anonymous   Login
Location: Unspecified
(0.0000°N, 0.0000°E)
Time: 06:50:50
(UTC+00:00)
Language:

RAX-2 - Orbit

View from above orbital plane
View from above orbital plane
View from above satellite
View from above satellite

Ground track
Ground track

The orbit data is extracted from the following two-line orbital elements,

1 37853U 11061D   18109.70578494  .00000342  00000-0  27715-4 0  9993
2 37853 101.7190 136.1117 0172729 265.2142  92.9326 15.02440965352655
Epoch (UTC): 19 April 2018 16:56:19
Eccentricity: 0.0172729
inclination: 101.7190°
perigee height: 439 km
apogee height: 679 km
right ascension of ascending node: 136.1117°
argument of perigee: 265.2142°
revolutions per day: 15.02440965
mean anomaly at epoch: 92.9326°
orbit number at epoch: 35265

The dashed part of the orbit path shows where the satellite is in the earth's shadow,  

DLR